Flag for China Weather past 2 weeks in Suzhou, Jiangsu, China

Now
86 °F

Passing clouds.


Feels Like: 87 °F
Forecast: 64 / 72 °F
Wind: 10 mph from Southwest

Location: Shanghai Hongqiao Airport

Current Time: Apr 28, 2015 at 3:55:50 PM

Latest Report: Apr 28, 2015 at 3:00 PM


Visibility: N/A

Pressure: 29.68 "Hg

Humidity: 46%

Dew point: 63 °F

Location of SuzhouLocation

Historic Weather in Suzhou — Graph

°F

Suzhou temperature yesterday

Maximum temperature yesterday: 79 °F (at 12:00 PM)
Minimum temperature yesterday: 64 °F (at 12:00 AM)
Average temperature yesterday: 70 °F

Past Weeks' High & Low Weather Summary

 TemperatureHumidityPressure
High88 °F (Apr 28, 1:00 PM)94% (Apr 18, 2:00 AM)30.21 "Hg (Apr 18, 2:00 AM)
Low45 °F (Apr 14, 3:30 AM)12% (Apr 23, 3:30 PM)29.59 "Hg (Apr 19, 4:00 PM)
Average65 °F59%29.96 "Hg
* Reported Apr 13 3:00 PM — Apr 28 3:00 PM, Suzhou, Weather by CustomWeather, © 2015

Note: Actual official high and low records may vary slightly from our data, if they occured in-between our weather recording intervals... More about our weather records

Advertising

Suzhou weather history for previous 24 hours

 ConditionsComfort  
Time TempWeatherWind HumidityBarometerVisibility
3:00 PM
Tue, Apr 28
86 °FPassing clouds.10 mph46%29.68 "HgN/A
2:30 PM88 °FPassing clouds.13 mph43%29.68 "HgN/A
2:00 PM88 °FPassing clouds.10 mph43%29.71 "HgN/A
1:30 PM86 °FPassing clouds.15 mph43%29.71 "HgN/A
1:00 PM88 °FPassing clouds.13 mph43%29.71 "HgN/A
12:30 PM86 °FPassing clouds.13 mph46%29.71 "HgN/A
11:30 AM82 °FSunny.13 mph55%29.74 "Hg10 mi
11:00 AM82 °FPassing clouds.13 mph51%29.74 "HgN/A
10:30 AM82 °FPassing clouds.13 mph55%29.77 "HgN/A
10:00 AM81 °FPassing clouds.13 mph58%29.77 "HgN/A
9:30 AM81 °FSunny.10 mph54%29.74 "Hg10 mi
9:00 AM79 °FPassing clouds.8 mph58%29.77 "HgN/A
8:30 AM77 °FSunny.10 mph61%29.77 "Hg10 mi
8:00 AM75 °FClear.10 mph65%29.77 "Hg5 mi
7:30 AM73 °FClear.8 mph69%29.77 "Hg4 mi
7:00 AM70 °FClear.6 mph78%29.77 "Hg4 mi
6:30 AM68 °FClear.6 mph83%29.74 "Hg4 mi
6:00 AM66 °FClear.6 mph83%29.74 "Hg4 mi
5:30 AM66 °FClear.8 mph83%29.74 "Hg4 mi
5:00 AM66 °FClear.6 mph83%29.74 "Hg10 mi
4:30 AM66 °FClear.6 mph83%29.74 "Hg10 mi
4:00 AM66 °FClear.3 mph83%29.74 "Hg10 mi
3:30 AM66 °FClear.6 mph83%29.74 "Hg10 mi
3:00 AM66 °FClear.3 mph83%29.74 "Hg10 mi
2:30 AM66 °FClear.6 mph83%29.74 "Hg10 mi
2:00 AM66 °FClear.6 mph83%29.74 "Hg10 mi
1:30 AM66 °FClear.8 mph83%29.74 "Hg10 mi
1:00 AM66 °FClear.6 mph83%29.77 "Hg10 mi
12:30 AM66 °FClear.8 mph83%29.77 "Hg10 mi
12:00 AM66 °FClear.10 mph83%29.77 "Hg10 mi
11:30 PM
Mon, Apr 27
66 °FClear.10 mph83%29.80 "Hg10 mi
11:00 PM66 °FClear.8 mph83%29.80 "Hg10 mi
10:30 PM68 °FClear.8 mph78%29.80 "Hg10 mi
10:00 PM68 °FClear.10 mph78%29.80 "Hg10 mi
9:30 PM68 °FClear.8 mph78%29.80 "Hg10 mi
9:00 PM68 °FClear.10 mph73%29.83 "Hg10 mi
8:30 PM68 °FClear.10 mph73%29.83 "Hg10 mi
8:00 PM70 °FClear.10 mph69%29.83 "Hg10 mi
7:30 PM70 °FClear.10 mph69%29.80 "Hg10 mi
7:00 PM72 °FClear.10 mph65%29.83 "Hg10 mi
6:30 PM72 °FClear.10 mph65%29.80 "Hg10 mi
6:00 PM72 °FSunny.13 mph69%29.83 "Hg10 mi
5:30 PM73 °FSunny.10 mph65%29.83 "Hg10 mi
5:00 PM75 °FPassing clouds.10 mph61%29.83 "HgN/A
4:30 PM75 °FSunny.10 mph61%29.83 "Hg10 mi
4:00 PM77 °FSunny.10 mph54%29.83 "Hg10 mi
3:30 PM77 °FPassing clouds.10 mph54%29.83 "HgN/A
3:00 PM77 °FPassing clouds.10 mph54%29.83 "HgN/A
Weather by CustomWeather, © 2015

See weather overviewHow to use our weather pages